The Dilly Family's Weather Page
McMurray, PA 15317   Weather
Using a La Crosse Technology Model 2315 Weather Station

  Local Radar

Local Radar

  Graphs, Details
Detailed Weather
Detailed Reports
Mobile Version of This Page
Brief Version of This Page
  Maps
Temperature
Heat Index
Windchill
Humidity
Radar
Dew Point
Wind
Visibility
Visible Satellite
Satellite
Fronts
Snow Depth
Jet Stream
Flight Rules
  Forecast Maps
Temperature Forecast
Maximum Temperature Forecast
Minimum Temperature Forecast
Dewpoint Forecast
Prevalent Weather
12Hr Probability of Precip.
Sky Cover
  Health Maps
UV Forecast
Air Quality
Peak Air Quality Index
  Weather Station
La Crosse Technology
 
 
Weather Underground PWS KPAMCMUR4
KPAMCMUR4 Dashboard
 

HeavyWeather Data
WeatherForYou.com METAR
Worldwide Station List METAR
Meteorological Products Processed At The NWSTG
Stickers

  Current Conditions [Select Refresh to Update]

Updated: 9:14pm on 1/25/15

Currently:
32.5°

Clear
Overcast

High: 36.6° 
(2:09pm) 
Low: 31.8° 
(12:00am)
Wind: 0 mph from the NE
Gust: 0 mph
Today's High Wind: 8 mph (4:11am)
Humidity: 90%
Pressure: 29.72 in  (Steady) 
Pressure Rate: -0.003 in/hr
Dew Point: 29.9°
Wind Chill: 32.5°
Heat Index (feels like): 38.1°
Comfort Level: Cool
Temperature Rate:  -0.50°/hr
 
  5 Day Forecast
 
Sun Mon Tue Wed Thu
Clear Clear Clear Clear Clear
Snow Snow Chance Snow Clear Chance Snow
37° 34° 25° 28° 37°
30° 21° 18° 10° 23°

  Records and Normals
 
Temperature Forecast Normal Record
High 37° 38° 56°
(1989)
Low 30° 21°
(2004)
 
  Almanac
Sunrise:  
7:34am
Moonrise: 
10:40am

Moon Phase:
36%

Sunset: 
5:28pm
Moonset:  
11:54pm
 
  Weather Underground     KPAMCMUR4

  Weather Advisories
Warning Date: 3:45 PM EST on January 25, 2015
Warning Description: Winter Weather Advisory
Full Advisory Text...
  Weather Map

 
  Web Cams   (Northerly View)
Northerly view toward Pittsburgh.
 
  Rainfall Totals
Hourly Rain 0.00 in
Daily Rain 0.17 in
Monthly Rain 1.48 in
Yearly Rain 1.48 in
Normal Rain, month to date       0.00 in
Normal Rain, year to date 0.00 in
 
 
Weather.com
WeatherUnderground NorthEast Fronts
WeatherUnderground NorthEast Radar
WeatherBug NorthEast Radar
WeatherBug, Peters HS
WPXI Weather
KDKA Weather
WTEA Weather
Intellacast Canonsburg
AccuWeather
Yahoo, McMurray
Twitter, Pittsburgh
Fox53 Radar
Time and Date, Pittsburgh
NOAA Weather Pitt
FilghtStats PIT
NWS Thompsonville
USGS Tides and Temperature at Manasquan
NWS US Radar - Loop
Windyty, Wind Forecast
  Local Weather Exchange Network
Station ID

City 
(Click for Map Location)

Neighborhood 
(Click for History)
Last Update (Date & Time)

Temperature
 (°)

Dew
Point (°)
Humidity 
(%)
Wind 
(mph)
from the Wind Gust 
(mph) 
Pressure (in) Hourly
Rain (in)
KPACANON8 Canonsburg Hooks Lane 01/25 21:06:57 32.4 31.0 93 0 North 0 29.87 0.00
KPACANON7 Canonsburg Scenery Circle 01/25 21:06:59 30.7 30.0 95 0 North 0 29.82 0.00
KPACANON5 Canonsburg Canonsburg 01/25 21:09:57 33.0 31.0 91 1 ENE 1 29.77 0.00
KPAMCMUR5 McMurray Bremen Lane 01/25 21:06:43 37.6 31.0 78 0 North 0 29.81 0.00
KPAMCMUR4 McMurray Thompsonville-McMurray 01/25 21:09:10 32.7 30.0 90 0 NE 0 29.73 0.00
KPABRIDG3 Bridgeville Willowbrook 01/25 21:09:56 32.9 31.0 94 0 WNW 0 29.79 0.00
KPACANON6 Canonsburg Sunset Acres, McMurray PA KPACANON6 01/25 21:07:18 32.4 32.0 97 0 ESE 0 29.76 0.00
KPAMCMUR3 McMurray St. Benedict the Abbot 01/25 21:09:54 32.7 32.0 98 0 NNW 0 29.77 0.00
KPABRIDG2 Bridgeville Hunting Ridge 01/25 21:00:04 32.4 30.0 89 0 West 0 28.60 0.00
KPAEIGHT3 Eighty Four Nottingham Twp. 01/25 21:10:01 32.1 28.0 85 0 NE 0 29.80 0.00
KPAVENET5 Venetia Willamar 01/25 21:06:43 31.5 31.0 98 3 ENE 0 29.67 0.00
KPABRIDG1 Bridgeville Olde Orchard South Fayette Bridgeville 01/25 21:09:59 32.0 29.0 89 0 South 0 29.71 0.00
KPAVENET3 Venetia Bower Hill Rd 01/25 21:09:30 33.1 31.0 93 0 NNW 1 29.81 0.03
KPAPITTS69 Pittsburgh Mayview Road USC by Rec Center 01/25 21:10:00 31.5 29.0 91 0 North 0 29.98 0.00
KPABETHE4 Bethel Park Bethel Park, PA - Terrasurv 01/25 21:08:33 31.6 32.0 100 0 NE 0 29.78 0.00
KPABETHE3 Bethel Park Bethel Park 01/25 21:05:17 32.7 32.0 96 0 North 0 29.82 0.00
KPAWASHI5 Washington Cameron Estates/South Strabane 01/25 20:56:00 32.4 31.0 96 3 NNE 0 29.80 0.00
KPAVENET4 Venetia Sugar Run Road 01/25 21:05:06 32.5 29.0 86 0 East 2 29.60 0.00
KPAPITTS89 Pittsburgh Washington Road 01/25 21:06:52 34.7 32.0 91 0 North 0 29.88 0.00
KPAMTLEB2 Mount Lebanon Mount Lebanon 01/25 21:10:01 32.2 30.0 91 0 South 0 29.69 0.00
KPAWASHI3 Washington Canton Twp. 01/25 21:08:57 31.6 30.0 95 0 SE 3 29.79 0.00
KPASCOTT2 Scott Township Scott Township Neighborhood Weather 01/25 21:10:03 33.3 32.0 96 0 SW 4 29.84 0.00
KPAPITTS87 Pittsburgh Mt. Lebanon, PA 01/25 21:10:00 31.0 29.0 95 1 East 2 29.79 0.00
KPAPITTS98 Pittsburgh Jamestown Road 01/25 21:07:08 31.5 30.0 93 0 North 0 29.84 0.00
KPAPITTS50 Pittsburgh Dormont 01/25 21:10:03 31.8 32.0 99 0 SE 0 29.38 0.00
KPAPITTS97 Pittsburgh Greentree 01/25 21:09:59 32.0 30.0 94 0 SE 2 29.67 0.00
KPAPITTS103 Pittsburgh Overbrook 01/25 21:07:21 33.4 31.0 92 0 North 0 29.66 0.00
KPAWASHI8 Washington Walker Road 01/25 21:07:20 32.9 31.0 93 0 North 0 29.85 0.00
KPAPITTS88 Pittsburgh Village Green Drive 01/25 21:07:00 33.6 30.0 87 0 North 0 29.86 0.00
KPAPITTS29 Pittsburgh Carrick/Pittsburgh 01/25 21:08:44 31.4 30.0 95 0 NE 2 29.81 0.00
KPACRAFT2 Crafton Bradford Court 01/25 21:10:02 32.4 32.0 99 0 North 0 29.91 0.00
KPAPITTS58 Pittsburgh Robinson Township 01/25 21:09:52 31.3 28.0 89 1 NE 1 29.78 0.00
KPAIMPER1 Imperial Imperial Neighborhood Weather 01/25 21:06:17 30.6 30.0 99 0 NE 0 29.82 0.00
KPAIMPER4 Imperial Walden Woods 01/25 21:09:53 31.6 32.0 99 0 North 0 29.93 0.00
KPAPITTS46 Pittsburgh Baldwin 01/25 21:10:03 32.0 30.0 93 0 North 0 29.80 0.00
KPAPITTS62 Pittsburgh Crafton Heights 01/25 21:09:47 31.0 28.0 88 0 ENE 0 29.75 0.00
KPACLAIR2 Clairton Jefferson Hills 01/25 21:09:32 32.9 28.0 80 0 South 0 29.83 0.00
KPAIMPER8 Imperial Santiago 01/25 21:05:18 31.1 31.0 98 3 NNE 0 29.59 0.00
KPAMCKEE6 McKees Rocks Fawn Acres 01/25 20:55:40 30.1 29.0 96 0 SW 2 29.87 0.00
KPAPITTS92 Pittsburgh South Side Flats 01/25 21:06:25 36.9 32.0 82 0 North 0 28.89 0.00
  Full Advisory Text
Warning Description: Winter Weather Advisory

Warning Date: 3:45 PM EST on January 25, 2015

WarningSum:...Winter Weather Advisory Remains In Effect Until 1 Pm Est
Monday...

Warning Message:* snow accumulations...4 to 6 inches.
* Period of most intense snow...from mid evening until shortly before
  sunrise. 
* Snow ending...snow will become light Monday morning but continue
  through the day. 
* Impacts...hazardous travel conditions are expected due to snow 
  covered roads and limited visibility.
* Winds...northeast 5 to 10 mph.
Precautionary/preparedness actions...
A Winter Weather Advisory for snow means that travel difficulties
are expected. Report snow accumulation to the National Weather
Service by calling 412- 262-1988...posting to the NWS Pittsburgh
facebook Page...or using twitter @nwspittsburgh.
        

1/25/15 4+ 9:14pm   - http://weatherstation.wunderground.com/weatherstation/updateweatherstation.php?action=updateraw&ID=KPASMITH2&PASSWORD=&dateutc=2010-07-05+22%3A09%3A33&winddir=NE&tempf=32.5&windspeedmph=0&humidity=90&dewptf=29.9&baromin=29.72&rainin=0.00&dailyrainin=0.17

Ambient Weather and Weather Underground
 Never base important decisions on this or any weather information obtained from the Internet
Updated Automatically by Ambient Weather's Virtual Weather Station  V14.00

Template updated: 5:35 PM 6/9/2011